Simultaneous Nadir Overpasses (SNOs) Predictions

Prediction of SNOs between LANDSAT-8 and NPP Satellite Orbit:

Table of predicted SNOs for the next 14.0 days since TLE Epoch: 9/17/2022
Index Date (LANDSAT-8) Time (LANDSAT-8) Lat,Lon (LANDSAT-8) SZA (LANDSAT-8 ) Date (NPP) Time (NPP) Lat,Lon (NPP) SZA (NPP ) Distance(km) Time Diff (sec)
1 09/17/2022 06:09:24 70.70, 85.07 68.36 09/17/2022 06:08:15 70.75, 83.36 68.44 63.03 69
2 09/17/2022 06:59:03 -70.09,-108.19 112.24 09/17/2022 06:58:46 -70.08,-108.26 112.24 3.05 17
3 09/17/2022 07:48:31 69.94, 59.24 67.63 09/17/2022 07:49:30 69.96, 59.23 67.65 2.97 59
4 09/19/2022 22:26:04 70.13,-159.89 68.82 09/19/2022 22:24:59 70.12,-159.87 68.82 1.52 65
5 09/19/2022 23:15:34 -70.02, 7.58 111.28 09/19/2022 23:15:41 -70.03, 7.59 111.27 1.18 7
6 09/20/2022 00:05:08 69.53, 174.55 68.26 09/20/2022 00:06:18 69.54, 175.62 68.26 41.85 70
7 09/22/2022 14:42:34 70.09, -44.07 69.82 09/22/2022 14:41:54 70.07, -44.02 69.81 2.78 40
8 09/22/2022 15:32:04 -69.98, 123.41 110.28 09/22/2022 15:32:36 -69.97, 123.44 110.28 1.30 32
9 09/25/2022 06:09:25 -70.75, -94.87 108.50 09/25/2022 06:08:16 -70.76, -96.66 108.46 65.77 69
10 09/25/2022 06:59:02 70.09, 71.81 70.86 09/25/2022 06:58:49 70.08, 71.74 70.86 3.12 13
11 09/25/2022 07:48:33 -69.93,-120.78 109.29 09/25/2022 07:49:30 -69.93,-120.72 109.29 2.29 57
12 09/27/2022 22:26:05 -70.14, 20.12 108.07 09/27/2022 22:25:00 -70.15, 20.09 108.05 1.35 65
13 09/27/2022 23:15:32 70.02,-172.40 71.84 09/27/2022 23:15:44 70.04,-172.43 71.86 2.45 12
14 09/28/2022 00:05:08 -69.59, -5.36 108.58 09/28/2022 00:06:19 -69.57, -4.42 108.61 36.79 71
15 09/30/2022 14:42:34 -70.11, 135.97 107.05 09/30/2022 14:41:55 -70.11, 135.92 107.05 1.75 39
16 09/30/2022 15:32:01 70.00, -56.55 72.85 09/30/2022 15:32:39 70.01, -56.61 72.86 2.57 38



Historial Predications of SNOs between LANDSAT-8 and NPP
